Regional Weather Roundup
Issued by NWS

Home | Current Version | Previous Version | Text Only | Print | Product List | Glossary Off
Versions: 1 2 3 4 5 6 7 8 9 10 11 12 13 14 15 16 17 18 19 20 21 22 23 24 25 26 27 28 29 30 31 32 33 34 35 36 37 38 39 40 41 42 43 44 45 46 47 48 49 50

000
ASUS43 KBIS 030910
RWRND

NORTH DAKOTA REGIONAL WEATHER ROUNDUP
NATIONAL WEATHER SERVICE BISMARCK ND
400 AM CDT TUE MAY 03 2016

NOTE: "FAIR" INDICATES FEW OR NO CLOUDS BELOW 12,000 FEET WITH NO
SIGNIFICANT WEATHER AND/OR OBSTRUCTIONS TO VISIBILITY.


NDZ001>003-009>011-017-031000-
NORTHWEST NORTH DAKOTA

CITY           SKY/WX    TMP DP  RH WIND       PRES   REMARKS
WILLISTON      CLEAR     40  32  73 CALM      30.01S
MINOT          CLOUDY    55  36  48 SW12      29.95F
$$

NDZ018>021-031>035-040>046-031000-
SOUTHWEST NORTH DAKOTA

CITY           SKY/WX    TMP DP  RH WIND       PRES   REMARKS
BISMARCK       CLOUDY    38  38 100 CALM      30.01S FOG
DICKINSON      CLEAR     39  31  72 W5        30.02S
GARRISON         N/A     42  34  73 CALM      29.99S
HETTINGER ARPT CLOUDY    34  30  85 CALM      30.05F
$$

NDZ004>008-012>016-024-026-027-054-031000-
NORTHEAST NORTH DAKOTA

CITY           SKY/WX    TMP DP  RH WIND       PRES   REMARKS
GRAND FORKS    CLOUDY    50  36  58 W10       29.90F
GRND FRKS AFB  PTCLDY    52  35  53 W14       29.90F
DEVILS LAKE    PTCLDY    46  40  79 W8        29.94F
$$

NDZ022-023-025-028>030-036>039-047>053-031000-
SOUTHEAST NORTH DAKOTA

CITY           SKY/WX    TMP DP  RH WIND       PRES   REMARKS
FARGO          CLOUDY    46  36  68 W9        29.94S
JAMESTOWN      CLOUDY    40  36  86 SW3       29.96F
$$





USA.gov is the U.S. government's official web portal to all federal, state and local government web resources and services.